Find Starlink 30443

NORAD ID: 57894 Int'l Des: 2023-146 Owner: SPXS Country: US Constellation: starlink operational
LEOCIRCULAR

Live Position

Loading 3D Globe...

About Starlink 30443

Description loading...

Upcoming Passes

Passes for default location (London). Set your location on the main map for personalized predictions.

Altitude History

Loading altitude history...

Two-Line Element Set

1 57894U 23146D 26126.33736698 -.00000918 00000-0 -23820-4 0 9990
2 57894 43.0073 348.5611 0002151 256.6817 103.3795 15.27575446145873
Epoch: May 6, 2026 • Age: 15 hours

Current Status

Altitude 483.0 km
Velocity 7.63 km/s
Sub-Earth Point 20.53°N, 66.31°W
Launch Date Sep 20, 2023
Age 2.6 years
Type internet

Technical Details

Classification Payload
Mass 730.00 kg
Dry Mass 700.00 kg
Total Mass 730.00 kg
Length 0.30 m
Diameter 4.10 m
Span 29.00 m
Shape Box + pan
Manufacturer SPXS
Bus Type Starlink V2M
Phase Status In Orbit
Owner/State SPXS/US

Most Searched